When you browse on this site, cookies collect data to enhance your experience and personalize the content and advertising you see.
Visit our Privacy Policy to learn more. By continuing to use the site, you agree to this use of cookies and data.
  • In Lithuania
  • List of Countries
  • For 7 days
  • Water Temperature
  • Weather Map
  • Weather Widgets
  • user-avatar
    Login

    Hourly Weather Kabwe

    Today, 17 November, Sunday

    Time Temperature Precipitation Wind Pressure Humidity
    00:00 +21°C° 0 mm 2 mps 658 mmHg 92%
    01:00 +20°C° 0 mm 3 mps 658 mmHg 91%
    02:00 +20°C° 0 mm 3 mps 657 mmHg 91%
    03:00 +20°C° 0 mm 3 mps 657 mmHg 91%
    04:00 +20°C° 0 mm 2 mps 657 mmHg 91%
    05:00 +20°C° 0 mm 2 mps 657 mmHg 92%
    06:00 +23°C° 0 mm 2 mps 658 mmHg 86%
    07:00 +24°C° 0 mm 1 mps 659 mmHg 80%
    08:00 +25°C° 0 mm 1 mps 660 mmHg 75%
    09:00 +28°C° 0.2 mm 1 mps 660 mmHg 65%
    10:00 +31°C° 0.2 mm 1 mps 661 mmHg 54%
    11:00 +31°C° 0.2 mm 0 mps 661 mmHg 44%
    12:00 +34°C° 0 mm 1 mps 661 mmHg 41%
    13:00 +34°C° 0 mm 1 mps 660 mmHg 38%
    14:00 +35°C° 0 mm 1 mps 659 mmHg 35%
    15:00 +33°C° 0.1 mm 1 mps 659 mmHg 41%
    16:00 +31°C° 0.1 mm 2 mps 658 mmHg 47%
    17:00 +29°C° 0.1 mm 2 mps 657 mmHg 53%
    18:00 +28°C° 0.7 mm 2 mps 657 mmHg 60%
    19:00 +26°C° 0.7 mm 2 mps 657 mmHg 68%
    20:00 +25°C° 0.7 mm 1 mps 658 mmHg 75%
    21:00 +24°C° 0 mm 1 mps 658 mmHg 77%
    22:00 +24°C° 0 mm 1 mps 658 mmHg 79%
    23:00 +24°C° 0 mm 1 mps 658 mmHg 80%

    Tomorrow, 18 November, Monday

    Time Temperature Precipitation Wind Pressure Humidity
    00:00 +23°C° 0 mm 1 mps 658 mmHg 82%
    01:00 +23°C° 0 mm 1 mps 658 mmHg 83%
    02:00 +21°C° 0 mm 2 mps 658 mmHg 85%
    03:00 +22°C° 0 mm 1 mps 658 mmHg 85%
    04:00 +22°C° 0 mm 1 mps 658 mmHg 86%
    05:00 +22°C° 0 mm 1 mps 658 mmHg 86%
    06:00 +23°C° 0 mm 1 mps 659 mmHg 81%
    07:00 +24°C° 0 mm 2 mps 660 mmHg 76%
    08:00 +25°C° 0 mm 2 mps 660 mmHg 71%
    09:00 +28°C° 0 mm 2 mps 661 mmHg 61%
    10:00 +30°C° 0 mm 2 mps 661 mmHg 51%
    11:00 +32°C° 0 mm 2 mps 661 mmHg 41%
    12:00 +34°C° 0 mm 2 mps 660 mmHg 39%
    13:00 +34°C° 0 mm 2 mps 660 mmHg 38%
    14:00 +34°C° 0 mm 3 mps 659 mmHg 36%
    15:00 +33°C° 0 mm 3 mps 659 mmHg 41%
    16:00 +30°C° 0 mm 3 mps 658 mmHg 47%
    17:00 +29°C° 0 mm 4 mps 658 mmHg 52%
    18:00 +28°C° 0.1 mm 3 mps 658 mmHg 57%
    19:00 +27°C° 0.1 mm 2 mps 659 mmHg 62%
    20:00 +26°C° 0.1 mm 1 mps 659 mmHg 67%
    21:00 +25°C° 0 mm 1 mps 659 mmHg 69%
    22:00 +23°C° 0 mm 0 mps 660 mmHg 71%
    23:00 +22°C° 0 mm 0 mps 660 mmHg 73%

    Day after tomorrow, 19 November, Tuesday

    Time Temperature Precipitation Wind Pressure Humidity
    00:00 +24°C° 0 mm 1 mps 660 mmHg 75%
    01:00 +23°C° 0 mm 1 mps 659 mmHg 78%
    02:00 +23°C° 0 mm 1 mps 659 mmHg 80%
    03:00 +22°C° 0 mm 1 mps 659 mmHg 82%
    04:00 +22°C° 0 mm 1 mps 659 mmHg 84%
    05:00 +22°C° 0 mm 1 mps 659 mmHg 86%
    06:00 +23°C° 0 mm 1 mps 660 mmHg 77%
    07:00 +25°C° 0 mm 1 mps 661 mmHg 69%
    08:00 +27°C° 0 mm 1 mps 662 mmHg 60%
    09:00 +28°C° 0.3 mm 2 mps 662 mmHg 55%
    10:00 +30°C° 0.3 mm 2 mps 662 mmHg 50%
    11:00 +31°C° 0.3 mm 3 mps 662 mmHg 45%
    12:00 +33°C° 0 mm 3 mps 661 mmHg 42%
    13:00 +33°C° 0 mm 3 mps 661 mmHg 40%
    14:00 +34°C° 0 mm 3 mps 660 mmHg 38%
    15:00 +33°C° 0 mm 3 mps 660 mmHg 41%
    16:00 +31°C° 0 mm 3 mps 660 mmHg 43%
    17:00 +31°C° 0 mm 3 mps 660 mmHg 46%
    18:00 +29°C° 1.2 mm 2 mps 660 mmHg 57%
    19:00 +26°C° 1.2 mm 2 mps 659 mmHg 68%
    20:00 +24°C° 1.2 mm 1 mps 659 mmHg 79%
    21:00 +24°C° 0.1 mm 1 mps 660 mmHg 81%
    22:00 +23°C° 0.1 mm 1 mps 660 mmHg 83%
    23:00 +23°C° 0.1 mm 1 mps 660 mmHg 84%

    20 November, Wednesday

    Time Temperature Precipitation Wind Pressure Humidity
    00:00 +22°C° 0.2 mm 1 mps 660 mmHg 86%
    01:00 +21°C° 0.2 mm 2 mps 660 mmHg 88%
    02:00 +21°C° 0.2 mm 2 mps 659 mmHg 89%
    03:00 +21°C° 0.1 mm 1 mps 659 mmHg 91%
    04:00 +21°C° 0.1 mm 1 mps 660 mmHg 92%
    05:00 +21°C° 0.1 mm 1 mps 660 mmHg 93%
    06:00 +22°C° 0 mm 1 mps 660 mmHg 86%
    07:00 +23°C° 0 mm 1 mps 661 mmHg 79%
    08:00 +25°C° 0 mm 1 mps 662 mmHg 72%
    09:00 +28°C° 0.1 mm 1 mps 662 mmHg 61%
    10:00 +31°C° 0.1 mm 1 mps 663 mmHg 51%
    11:00 +34°C° 0.1 mm 1 mps 663 mmHg 40%
    12:00 +33°C° 0.1 mm 1 mps 662 mmHg 40%
    13:00 +32°C° 0.1 mm 1 mps 661 mmHg 40%
    14:00 +32°C° 0.1 mm 2 mps 660 mmHg 40%
    15:00 +32°C° 0 mm 2 mps 660 mmHg 41%
    16:00 +31°C° 0 mm 2 mps 659 mmHg 42%
    17:00 +31°C° 0 mm 2 mps 659 mmHg 42%
    18:00 +29°C° 0 mm 2 mps 659 mmHg 49%
    19:00 +27°C° 0 mm 1 mps 659 mmHg 56%
    20:00 +26°C° 0 mm 1 mps 659 mmHg 63%
    21:00 +25°C° 0.2 mm 1 mps 660 mmHg 67%
    22:00 +24°C° 0.2 mm 1 mps 660 mmHg 72%
    23:00 +24°C° 0.2 mm 1 mps 660 mmHg 76%

    21 November, Thursday

    Time Temperature Precipitation Wind Pressure Humidity
    00:00 +23°C° 0.3 mm 1 mps 660 mmHg 80%
    01:00 +21°C° 0.3 mm 2 mps 660 mmHg 83%
    02:00 +21°C° 0.3 mm 2 mps 659 mmHg 86%
    03:00 +20°C° 0 mm 2 mps 659 mmHg 88%
    04:00 +21°C° 0 mm 1 mps 660 mmHg 89%
    05:00 +21°C° 0 mm 1 mps 660 mmHg 90%
    06:00 +21°C° 0 mm 2 mps 660 mmHg 84%
    07:00 +23°C° 0 mm 2 mps 661 mmHg 78%
    08:00 +25°C° 0 mm 2 mps 661 mmHg 71%
    09:00 +27°C° 0.5 mm 2 mps 662 mmHg 62%
    10:00 +30°C° 0.5 mm 2 mps 662 mmHg 52%
    11:00 +32°C° 0.5 mm 2 mps 662 mmHg 43%
    12:00 +33°C° 0 mm 1 mps 661 mmHg 40%
    13:00 +33°C° 0 mm 1 mps 661 mmHg 38%
    14:00 +34°C° 0 mm 1 mps 661 mmHg 35%
    15:00 +33°C° 0 mm 1 mps 660 mmHg 38%
    16:00 +32°C° 0 mm 1 mps 660 mmHg 41%
    17:00 +31°C° 0 mm 1 mps 659 mmHg 44%
    18:00 +29°C° 0 mm 1 mps 659 mmHg 50%
    19:00 +27°C° 0 mm 1 mps 659 mmHg 56%
    20:00 +26°C° 0 mm 1 mps 659 mmHg 63%
    21:00 +25°C° 0 mm 1 mps 659 mmHg 66%
    22:00 +24°C° 0 mm 1 mps 660 mmHg 69%
    23:00 +24°C° 0 mm 1 mps 660 mmHg 73%

    22 November, Friday

    Time Temperature Precipitation Wind Pressure Humidity
    00:00 +23°C° 0.3 mm 1 mps 660 mmHg 76%
    01:00 +23°C° 0.3 mm 1 mps 659 mmHg 79%
    02:00 +22°C° 0.3 mm 1 mps 659 mmHg 83%
    03:00 +22°C° 0 mm 1 mps 659 mmHg 83%
    04:00 +22°C° 0 mm 1 mps 659 mmHg 84%
    05:00 +22°C° 0 mm 1 mps 659 mmHg 85%
    06:00 +24°C° 0 mm 1 mps 660 mmHg 77%
    07:00 +26°C° 0 mm 1 mps 660 mmHg 69%
    08:00 +26°C° 0 mm 0 mps 661 mmHg 61%
    09:00 +30°C° 0.2 mm 1 mps 661 mmHg 53%
    10:00 +32°C° 0.2 mm 1 mps 662 mmHg 44%
    11:00 +35°C° 0.2 mm 2 mps 662 mmHg 35%
    12:00 +35°C° 0 mm 1 mps 661 mmHg 34%
    13:00 +35°C° 0 mm 1 mps 660 mmHg 33%
    14:00 +35°C° 0 mm 1 mps 660 mmHg 32%
    15:00 +33°C° 0.1 mm 1 mps 659 mmHg 36%
    16:00 +32°C° 0.1 mm 1 mps 658 mmHg 40%
    17:00 +31°C° 0.1 mm 1 mps 658 mmHg 43%
    18:00 +29°C° 0.2 mm 1 mps 658 mmHg 48%
    19:00 +28°C° 0.2 mm 1 mps 658 mmHg 53%
    20:00 +27°C° 0.2 mm 1 mps 658 mmHg 58%
    21:00 +26°C° 0.1 mm 1 mps 658 mmHg 62%
    22:00 +25°C° 0.1 mm 1 mps 659 mmHg 65%
    23:00 +22°C° 0.1 mm 0 mps 659 mmHg 69%
    Show more